7 * 24
多渠道服务支持
COSMOS 2112是前苏联(CIS独联体时期)于1990年12月10日08:00发射的宇宙系列卫星,该系列是苏联/俄罗斯最大的军事卫星家族,涵盖侦察、通信、导航、科学试验等多种用途。作为冷战末期发射的航天器,它延续了“宇宙”系列保密任务属性,承担战略航天技术验证或军事监视任务,服役后在近地轨道完成既定使命,目前已成为空间碎片轨道存续。
俄罗斯(独联体)
(CIS)
| 数据来源 | 国际轨道数据 |
| 星历时间: | 2026-09-11T10:21:23+0800 12小时前 查看轨道信息 |
| 半长轴: | 7155.416km |
| 偏心率: | 0.0028214 |
| 轨道倾角: | 74.047° |
| 近地点辐角 | 314.536° |
| 升交点赤经 | 147.649° |
| 平近点角 | 45.349° |
| 近地点: | 757.09km |
| 远地点: | 797.468km |
| 周期: | 100.395分钟 |
| 每日圈数: | 14.343346 |
| 事件ID | 空间交会对象 | 最接近时刻(TCA) | 交会距离 | 交会风险概率(CRP) | 交会风险指数(CRI) | 操作 |
|---|---|---|---|---|---|---|
| CDM_260912-125600-552902-101426 |
COSMOS 397 DEB *
(5529)
COSMOS 2112
(21014) | 2026-09-12T 12:56:42+0000 |
1.075 km
极远距离 | 5.334291E-6 低风险 | 0.5 | |
| CDM_260912-233602-101404-182225 |
COSMOS 2112
(21014)
FENGYUN 1C DEB
(41822) | 2026-09-12T 23:36:30+0000 |
2.380 km
极远距离 | 1.936933E-6 低风险 | 0.41 | |
| CDM_260912-162702-101403-405325 |
COSMOS 2112
(21014)
COSMOS 2251 DEB
(34053) | 2026-09-12T 16:27:11+0000 |
1.609 km
极远距离 | 1.532607E-6 低风险 | 0.39 | |
| CDM_260914-033902-101404-067621 |
COSMOS 2112
(21014)
DMSP 5D-2 F13 DEB
(40676) | 2026-09-14T 03:39:39+0000 |
2.701 km
极远距离 | 1.532177E-6 低风险 | 0.39 |